Regional Weather Roundup
Issued by NWS San Angelo, TX

Home | Current Version | Previous Version | Text Only | Print | Product List | Glossary On
Versions: 1 2 3 4 5 6 7 8 9 10 11 12 13 14 15 16 17 18 19 20 21 22 23 24 25 26 27 28 29 30 31 32 33 34 35 36 37 38 39 40 41 42 43 44 45 46 47 48 49 50
000
ASUS44 KSJT 081610
RWRSJT
WEST CENTRAL TEXAS REGIONAL WEATHER ROUNDUP
NATIONAL WEATHER SERVICE SAN ANGELO TX
1000 AM CST THU DEC 08 2016

NOTE: "FAIR" INDICATES FEW OR NO CLOUDS BELOW 12,000 FEET WITH NO
SIGNIFICANT WEATHER AND/OR OBSTRUCTIONS TO VISIBILITY.

TXZ049-054-064>066-071>073-076>078-098-099-113-114-127-128-139-140-
154-155-168>170-081700
...LOCATIONS ACROSS WEST CENTRAL TEXAS...

CITY           SKY/WX    TMP DP  RH WIND       PRES   REMARKS
SAN ANGELO     CLOUDY    32  27  81 N20       30.59R WCI  20
ABILENE        CLOUDY    27  22  81 N17       30.65R WCI  14
DYESS AFB      FLURRIES  28  20  72 N15       30.64R WCI  16
JUNCTION       CLOUDY    36  25  64 NE22G30   30.54R WCI  25
SWEETWATER     CLOUDY    27  24  91 N12       30.65R WCI  16
BROWNWOOD      LGT RAIN  32  25  74 N13G22    30.63R WCI  22
COLEMAN        FLURRIES  30  25  81 N22       30.62R WCI  16
SONORA         PTSUNNY   36  25  64 N22G30    30.57R WCI  24
OZONA          CLOUDY    32  25  74 NE20G28   30.58R WCI  20
BRADY          NOT AVBL
$$

TEXAS PANHANDLE/OKLAHOMA PANHANDLE

CITY           SKY/WX    TMP DP  RH WIND       PRES   REMARKS
AMARILLO       CLOUDY    17   7  64 N13       30.61R WCI   4
BORGER         SUNNY     20   6  55 NE9       30.65R WCI   9
CANADIAN       MOSUNNY   20   8  60 N10       30.70R WCI   9
DALHART        SUNNY     17   9  70 E3        30.58R
DUMAS          SUNNY     16   4  59 NE9       30.60R WCI   4
GUYMON         NOT AVBL
HEREFORD       CLOUDY    19  10  67 NE10      30.61R WCI   8
PAMPA          PTSUNNY   18  10  69 N10G17    30.64R WCI   7
PERRYTON       SUNNY     19   7  60 NW6       30.66R WCI  11
$$

SOUTHERN PANHANDLE/SOUTH PLAINS/ROLLING PLAINS

CITY           SKY/WX    TMP DP  RH WIND       PRES   REMARKS
LUBBOCK        CLOUDY    24  17  74 NE13      30.59R WCI  12
SNYDER         LGT SNOW  25  22  86 N12G18    30.63R WCI  14
CHILDRESS      CLOUDY    25  11  55 N12       30.71R WCI  14
SEMINOLE       CLOUDY    26  21  79 NE9       30.59R WCI  17
$$

PERMIAN BASIN

CITY           SKY/WX    TMP DP  RH WIND       PRES   REMARKS
MIDLAND        CLOUDY    28  23  81 NE17      30.58R HAZE    WCI  16
ODESSA         CLOUDY    27  22  81 NE18      30.57S HAZE    WCI  14
WINK           CLOUDY    30  24  78 NE12      30.58R WCI  20
$$

FAR WEST/SOUTHWEST MOUNTAINS/TRANS PECOS

CITY           SKY/WX    TMP DP  RH WIND       PRES   REMARKS
ALPINE         CLOUDY    26  25  96 NE10G17   30.54R WCI  16
DRYDEN           N/A     35  28  75 N16G24    30.52R WCI  25
EL PASO        CLOUDY    36  23  59 E13       30.40R WCI  27
FORT STOCKTON  CLOUDY    28  26  92 NE14      30.57R WCI  17
GUADALUPE PASS SNOW      21  21 100 NE40      30.38R VSB<1/4 WCI   0
MARFA          CLOUDY    27  25  92 N17G24    30.43R WCI  14
PECOS          CLOUDY    30  26  86 NE13      30.60R WCI  20
$$

DALLAS/FORT WORTH METROPLEX

CITY           SKY/WX    TMP DP  RH WIND       PRES   REMARKS
DFW AIRPORT    CLOUDY    33  20  58 N14G25    30.65R WCI  23
FTW MEACHAM    CLOUDY    33  17  51 N18       30.67R WCI  22
DAL-EXECUTIVE  CLOUDY    34  18  52 N16       30.64R WCI  24
GRAND PRAIRIE  SUNNY     34  19  55 N12G23    30.67R WCI  25
ADDISON        CLOUDY    34  21  60 N17G23    30.67R WCI  23
MESQUITE       CLOUDY    34  19  55 N10G21    30.66R WCI  26
LANCASTER      CLOUDY    35  18  50 N14G21    30.66R WCI  25
$$

NORTH CENTRAL TEXAS

CITY           SKY/WX    TMP DP  RH WIND       PRES   REMARKS
SHRMAN/DENISON CLOUDY    32  19  59 N14G25    30.67R WCI  22
GAINESVILLE    CLOUDY    30  12  47 N16G22    30.69R WCI  18
BRIDGEPORT     CLOUDY    30  20  67 N12G18    30.70R WCI  21
DENTON         CLOUDY    31  17  56 N16G24    30.68R WCI  20
WAXAHACHIE     CLOUDY    34  23  64 N16G23    30.65R WCI  24
GRANBURY       CLOUDY    35  22  59 N13G18    30.68R WCI  26
$$

WESTERN NORTH TEXAS

CITY           SKY/WX    TMP DP  RH WIND       PRES   REMARKS
WICHITA FALLS  PTSUNNY   30  14  51 N18       30.71R WCI  18
VERNON         CLOUDY    29  12  48 N14G20    30.74R WCI  18
BRECKENRIDGE   NOT AVBL
COMANCHE       CLOUDY    31  27  86 N13G22    30.63R WCI  21
$$

CENTRAL AND SOUTH CENTRAL TEXAS

CITY           SKY/WX    TMP DP  RH WIND       PRES   REMARKS
AUSTIN/BERGSTM PTSUNNY   44  29  55 N30G43    30.50R WCI  34
WACO           CLOUDY    36  27  69 N23G31    30.60R WCI  24
HILLSBORO      CLOUDY    35  27  73 N25       30.60R WCI  23
TEMPLE         CLOUDY    37  28  70 MISG      30.58R
KILLEEN-GRAY   CLOUDY    36  27  71 NE20      30.55R WCI  25
FORT HOOD      CLOUDY    36  28  71 N20       30.55R WCI  25
GEORGETOWN     CLOUDY    39  27  60 N18G29    30.54R WCI  30
LAGO VISTA     FAIR      39  29  67 NE10G21   30.51R WCI  32
SAN MARCOS     MOSUNNY   43  30  61 N26G36    30.49R WCI  33
NEW BRAUNFELS  MOSUNNY   46  31  55 N26G35    30.45R WCI  37
RANDOLPH AFB   PTSUNNY   43  31  62 N26G33    30.41S WCI  33
SAN ANTONIO    PTSUNNY   43  29  57 N26G37    30.45R WCI  33
STINSON        CLOUDY    47  31  53 N16G31    30.43R
PLEASANTON     NOT AVBL
LA GRANGE      CLOUDY    44  36  73 N12G22    30.47R WCI  37
GIDDINGS       CLOUDY    41  32  70 N18G28    30.51R WCI  32
$$

EAST TEXAS

CITY           SKY/WX    TMP DP  RH WIND       PRES   REMARKS
PARIS          PTSUNNY   32  19  59 N16       30.62R WCI  21
CLARKSVILLE    NOT AVBL
TYLER          CLOUDY    38  29  70 N13       30.57R WCI  30
LONGVIEW       CLOUDY    40  32  73 N15G21    30.56R WCI  32
PALESTINE      CLOUDY    40  32  74 N14G24    30.58R WCI  32
NACOGDOCHES    CLOUDY    41  30  65 N8G16     30.51R WCI  36
$$

TEXAS HILL COUNTRY AND EDWARDS PLATEAU

CITY           SKY/WX    TMP DP  RH WIND       PRES   REMARKS
LLANO          CLOUDY   N/A N/A N/A NE12G18   30.60R
HORSESHOE BAY  FAIR      38  28  65 NE12G24   30.55R WCI  31
KERRVILLE      CLOUDY    36  28  72 N25G35    30.47R WCI  24
FREDERICKSBRG  CLOUDY    35  25  66 N21G31    30.50R WCI  24
ROCKSPRINGS    MOSUNNY   34  28  80 NE18G30   30.45S WCI  23
HONDO          CLOUDY    45  33  63 NE20G30   30.45R WCI  37
UVALDE         CLOUDY    43  34  71 N14       30.47R WCI  36
DEL RIO        CLOUDY    43  33  68 N10G18    30.51R WCI  37
$$

SOUTHEAST TEXAS

CITY           SKY/WX    TMP DP  RH WIND       PRES   REMARKS
COLLEGE STN    CLOUDY    42  37  82 N18       30.51R WCI  34
CALDWELL       NOT AVBL
CROCKETT       CLOUDY    41  32  70 NE15G21   30.55R WCI  33
BRENHAM        CLOUDY    46  39  79 N17G25    30.47R WCI  38
HUNTSVILLE     CLOUDY    43  35  73 N8        30.48R WCI  38
CONROE         CLOUDY    45  40  82 N12G20    30.46R WCI  39
HOUSTON BUSH   CLOUDY    46  41  82 N26G33    30.43R WCI  37
HOUSTON HOBBY  CLOUDY    48  43  82 N25G31    30.40R
PERLAND        CLOUDY    50  44  80 N18G25    30.40R
WHARTON        CLOUDY    48  42  81 N24G33    30.40R WCI  40
$$

THE UPPER TEXAS COAST

CITY           SKY/WX    TMP DP  RH WIND       PRES   REMARKS
ORANGE         CLOUDY   N/A N/A N/A N13G20    30.41R
PORT ARTHUR    CLOUDY    48  45  89 N23G31    30.38R
GALVESTON      CLOUDY    54  50  86 N29G35    30.36R
ANGLETON       CLOUDY    51  47  86 N22G36    30.36R
BAY CITY       CLOUDY    51  49  90 N16G25    30.36R
$$

TEXAS COASTAL BEND, RIO GRANDE PLAINS DEEP SOUTH TEXAS

CITY           SKY/WX    TMP DP  RH WIND       PRES   REMARKS
VICTORIA       CLOUDY    48  41  76 N25G35    30.40R
BEEVILLE       CLOUDY    47  42  82 N24G31    30.38R WCI  39
ROCKPORT         N/A    N/A N/A N/A MISG      30.32R
PORT ARANSAS   CLOUDY    53  48  84 N31G41    30.31R
PORT LAVACA    CLOUDY    49  46  90 N21G33    30.37R
CORPUS CHRISTI LGT RAIN  52  48  86 NE26G37   30.32R
KINGSVILLE NAS LGT RAIN  52  50  93 N17G24    30.35R FOG
COTULLA        CLOUDY    50  36  58 NE17G28   30.44R
LAREDO         LGT RAIN  50  46  86 N16       30.42R
BROWNSVILLE    RAIN      64  63  96 N9G22     30.21R
PORT ISABEL    CLOUDY    65  63  93 N23G35    30.19R FOG
HEBBRONVILLE   RAIN      48  46  91 N17       30.36R
MCALLEN        CLOUDY    58  53  84 NW10      30.31R HAZE
WESLACO        CLOUDY    57  53  86 N12G22    30.26R
FALFURRIAS     CLOUDY    52  49  89 N18G25    30.32R
EDINBURG       CLOUDY    58  52  79 N20G25    30.28R
$$




USA.gov is the U.S. government's official web portal to all federal, state and local government web resources and services.